TimeGMT,TemperatureF,Dew PointF,Humidity,Sea Level PressureIn,VisibilityMPH,Wind Direction,Wind SpeedMPH,Gust SpeedMPH,PrecipitationIn,Events,Conditions,WindDirDegrees,DateUTC
12:00 AM,43,41,90,30.17,12,WSW,6.7,,,,Scattered Clouds,240,2013-01-14 00:00:00
12:00 AM,42.8,41.0,93,30.15,6.2,WSW,6.9,-,N/A,,Mostly Cloudy,240,2013-01-14 00:00:00
12:30 AM,44.6,41.0,87,30.15,6.2,West,12.7,-,N/A,,Mostly Cloudy,270,2013-01-14 00:30:00
1:00 AM,44.6,41.0,87,30.12,6.2,West,11.5,-,N/A,,Mostly Cloudy,260,2013-01-14 01:00:00
1:30 AM,44.6,42.8,93,30.12,6.2,West,12.7,-,N/A,,Light Drizzle,270,2013-01-14 01:30:00
2:00 AM,44.6,42.8,93,30.12,6.2,West,9.2,-,N/A,,Mostly Cloudy,260,2013-01-14 02:00:00
2:30 AM,44.6,42.8,93,30.09,5.6,WSW,11.5,-,N/A,,Light Drizzle,250,2013-01-14 02:30:00
3:00 AM,44.6,42.8,93,30.09,5.6,West,15.0,-,N/A,,Light Drizzle,270,2013-01-14 03:00:00
3:30 AM,46.4,44.6,93,30.09,5.0,West,15.0,-,N/A,Rain,Light Rain,270,2013-01-14 03:30:00
4:00 AM,46.4,42.8,87,30.06,6.2,West,16.1,-,N/A,,Mostly Cloudy,270,2013-01-14 04:00:00
4:30 AM,46.4,42.8,87,30.06,6.2,West,15.0,-,N/A,,Mostly Cloudy,270,2013-01-14 04:30:00
5:00 AM,46.4,44.6,93,30.04,5.6,WNW,13.8,-,N/A,Rain,Light Rain,290,2013-01-14 05:00:00
5:30 AM,46.4,42.8,87,30.04,6.2,WNW,15.0,-,N/A,,Mostly Cloudy,300,2013-01-14 05:30:00
6:00 AM,46,42,80,30.05,10,WNW,15.7,,,Rain,Light Rain,300,2013-01-14 06:00:00
6:00 AM,46.4,42.8,87,30.04,6.2,WNW,15.0,-,N/A,,Mostly Cloudy,300,2013-01-14 06:00:00
6:30 AM,44.6,41.0,87,30.04,6.2,WNW,11.5,-,N/A,,Mostly Cloudy,300,2013-01-14 06:30:00
7:00 AM,44.6,41.0,87,30.04,6.2,NW,9.2,-,N/A,,Mostly Cloudy,310,2013-01-14 07:00:00
7:30 AM,44.6,41.0,87,30.04,6.2,NW,16.1,-,N/A,Rain,Light Rain Showers,310,2013-01-14 07:30:00
8:00 AM,44.6,41.0,87,30.04,6.2,WNW,11.5,-,N/A,,Mostly Cloudy,300,2013-01-14 08:00:00
8:30 AM,44.6,41.0,87,30.06,6.2,WNW,12.7,-,N/A,,Mostly Cloudy,300,2013-01-14 08:30:00
9:00 AM,44.6,41.0,87,30.06,6.2,WNW,11.5,-,N/A,,Mostly Cloudy,300,2013-01-14 09:00:00
9:30 AM,44.6,41.0,87,30.06,6.2,WNW,9.2,-,N/A,Rain,Light Rain,300,2013-01-14 09:30:00
10:00 AM,44.6,41.0,87,30.06,6.2,WNW,10.4,-,N/A,Rain,Light Rain,300,2013-01-14 10:00:00
10:30 AM,44.6,41.0,87,30.04,6.2,WNW,11.5,-,N/A,,Mostly Cloudy,290,2013-01-14 10:30:00
11:00 AM,44.6,39.2,81,30.04,6.2,WNW,11.5,-,N/A,,Scattered Clouds,290,2013-01-14 11:00:00
11:30 AM,44.6,41.0,87,30.04,6.2,WNW,10.4,-,N/A,,Partly Cloudy,300,2013-01-14 11:30:00
12:00 PM,46,40,71,30.04,22,WNW,13.4,,,,Partly Cloudy,300,2013-01-14 12:00:00
12:00 PM,46.4,39.2,76,30.04,6.2,WNW,13.8,-,N/A,,Mostly Cloudy,300,2013-01-14 12:00:00
12:30 PM,46.4,39.2,76,30.01,6.2,NW,15.0,-,N/A,,Mostly Cloudy,310,2013-01-14 12:30:00
1:00 PM,46.4,39.2,76,30.01,6.2,NW,16.1,-,N/A,,Mostly Cloudy,310,2013-01-14 13:00:00
1:30 PM,46.4,39.2,76,30.01,6.2,WNW,16.1,-,N/A,,Mostly Cloudy,300,2013-01-14 13:30:00
2:00 PM,44.6,37.4,76,29.98,6.2,WNW,15.0,-,N/A,,Scattered Clouds,300,2013-01-14 14:00:00
2:30 PM,46.4,39.2,76,29.98,6.2,NW,16.1,-,N/A,,Scattered Clouds,310,2013-01-14 14:30:00
3:00 PM,46.4,39.2,76,29.98,6.2,NW,15.0,-,N/A,,Scattered Clouds,310,2013-01-14 15:00:00
3:30 PM,46.4,39.2,76,30.01,6.2,NW,11.5,-,N/A,,Scattered Clouds,320,2013-01-14 15:30:00
4:00 PM,44.6,39.2,81,30.01,6.2,NW,15.0,-,N/A,,Scattered Clouds,310,2013-01-14 16:00:00
4:30 PM,42.8,39.2,87,30.01,6.2,NNW,9.2,-,N/A,,Mostly Cloudy,330,2013-01-14 16:30:00
5:00 PM,42.8,39.2,87,30.01,6.2,WNW,6.9,-,N/A,,Mostly Cloudy,290,2013-01-14 17:00:00
5:30 PM,42.8,39.2,87,30.01,6.2,WNW,10.4,-,N/A,,Mostly Cloudy,300,2013-01-14 17:30:00
6:00 PM,42,38,80,30.02,16,NW,8.9,,,Rain,Light Rain Showers,310,2013-01-14 18:00:00
6:00 PM,42.8,37.4,81,30.01,6.2,NW,8.1,-,N/A,,Mostly Cloudy,310,2013-01-14 18:00:00
6:30 PM,41.0,37.4,87,30.01,6.2,WNW,10.4,-,N/A,,Partly Cloudy,290,2013-01-14 18:30:00
7:00 PM,41.0,37.4,87,30.01,6.2,WNW,10.4,-,N/A,,Mostly Cloudy,300,2013-01-14 19:00:00
7:30 PM,41.0,37.4,87,30.01,6.2,NW,8.1,-,N/A,,Partly Cloudy,310,2013-01-14 19:30:00
8:00 PM,41.0,37.4,87,30.01,-9999.0,WNW,6.9,-,N/A,,Clear,300,2013-01-14 20:00:00
8:30 PM,39.2,35.6,87,30.01,-9999.0,WNW,5.8,-,N/A,,Clear,300,2013-01-14 20:30:00
9:00 PM,37.4,35.6,93,30.01,-9999.0,West,9.2,-,N/A,,Clear,280,2013-01-14 21:00:00
9:30 PM,39.2,35.6,87,30.01,-9999.0,WNW,10.4,-,N/A,,Clear,290,2013-01-14 21:30:00
10:00 PM,39.2,33.8,81,30.01,-9999.0,West,11.5,-,N/A,,Clear,280,2013-01-14 22:00:00
10:30 PM,39.2,33.8,81,30.01,-9999.0,WNW,6.9,-,N/A,,Clear,290,2013-01-14 22:30:00
11:00 PM,37.4,33.8,87,30.01,-9999.0,NNW,3.5,-,N/A,,Clear,340,2013-01-14 23:00:00
11:30 PM,39.2,33.8,81,30.01,-9999.0,NW,3.5,-,N/A,,Scattered Clouds,310,2013-01-14 23:30:00